TimeEDT,TemperatureF,Dew PointF,Humidity,Sea Level PressureIn,VisibilityMPH,Wind Direction,Wind SpeedMPH,Gust SpeedMPH,PrecipitationIn,Events,Conditions,WindDirDegrees,DateUTC
12:54 AM,75.9,72.0,87,29.73,10.0,Variable,3.5,-,N/A,,Clear,0,2013-06-30 04:54:00
1:27 AM,75.2,73.4,94,29.74,9.0,South,5.8,-,N/A,,Mostly Cloudy,170,2013-06-30 05:27:00
1:54 AM,75.0,73.0,94,29.73,8.0,Variable,4.6,-,N/A,,Mostly Cloudy,0,2013-06-30 05:54:00
2:54 AM,75.9,73.0,91,29.73,8.0,South,5.8,-,N/A,,Scattered Clouds,170,2013-06-30 06:54:00
3:41 AM,75.2,73.4,94,29.74,7.0,South,5.8,-,N/A,,Mostly Cloudy,170,2013-06-30 07:41:00
3:51 AM,75.2,73.4,94,29.73,8.0,South,5.8,-,N/A,,Scattered Clouds,170,2013-06-30 07:51:00
3:54 AM,75.0,73.0,94,29.73,8.0,South,6.9,-,N/A,,Mostly Cloudy,170,2013-06-30 07:54:00
4:54 AM,75.9,72.0,87,29.75,9.0,South,6.9,-,N/A,,Overcast,180,2013-06-30 08:54:00
5:54 AM,75.9,72.0,87,29.76,10.0,South,8.1,-,N/A,,Overcast,180,2013-06-30 09:54:00
6:54 AM,75.9,72.0,87,29.77,8.0,SSE,3.5,-,N/A,,Mostly Cloudy,160,2013-06-30 10:54:00
7:31 AM,75.2,71.6,89,29.79,8.0,Calm,Calm,-,N/A,,Overcast,0,2013-06-30 11:31:00
7:54 AM,75.9,73.0,91,29.80,8.0,Variable,3.5,-,N/A,,Overcast,0,2013-06-30 11:54:00
8:02 AM,75.2,73.4,94,29.80,8.0,South,4.6,-,N/A,,Overcast,170,2013-06-30 12:02:00
8:54 AM,75.9,73.9,94,29.80,5.0,South,3.5,-,0.01,Rain,Light Rain,170,2013-06-30 12:54:00
8:58 AM,75.2,73.4,94,29.80,5.0,SSE,4.6,-,0.00,Rain,Light Rain,150,2013-06-30 12:58:00
9:16 AM,75.2,73.4,94,29.81,6.0,South,5.8,-,0.00,,Overcast,170,2013-06-30 13:16:00
9:40 AM,75.2,73.4,94,29.80,6.0,Variable,5.8,-,0.00,,Overcast,0,2013-06-30 13:40:00
9:54 AM,77.0,73.9,90,29.80,7.0,South,6.9,-,0.00,,Overcast,170,2013-06-30 13:54:00
10:54 AM,78.1,72.0,81,29.81,9.0,SSE,8.1,-,N/A,,Overcast,160,2013-06-30 14:54:00
11:06 AM,78.8,71.6,78,29.81,10.0,South,5.8,-,N/A,,Overcast,170,2013-06-30 15:06:00
11:54 AM,84.0,71.1,65,29.81,10.0,South,9.2,-,N/A,,Mostly Cloudy,180,2013-06-30 15:54:00
12:10 PM,82.4,69.8,66,29.81,10.0,Variable,6.9,-,N/A,,Scattered Clouds,0,2013-06-30 16:10:00
12:54 PM,84.0,70.0,63,29.80,10.0,SSE,9.2,-,N/A,,Mostly Cloudy,160,2013-06-30 16:54:00
1:54 PM,84.9,69.1,59,29.80,10.0,South,9.2,-,N/A,,Mostly Cloudy,170,2013-06-30 17:54:00
2:54 PM,87.1,68.0,53,29.78,10.0,SSE,6.9,-,N/A,,Partly Cloudy,160,2013-06-30 18:54:00
3:54 PM,86.0,70.0,59,29.78,10.0,South,9.2,-,N/A,,Partly Cloudy,170,2013-06-30 19:54:00
4:54 PM,86.0,72.0,63,29.78,10.0,SE,8.1,-,N/A,,Clear,130,2013-06-30 20:54:00
5:54 PM,82.9,71.1,67,29.79,10.0,Variable,5.8,-,N/A,,Clear,0,2013-06-30 21:54:00
6:54 PM,82.0,72.0,71,29.80,10.0,Variable,4.6,-,N/A,,Scattered Clouds,0,2013-06-30 22:54:00
7:06 PM,80.6,71.6,74,29.82,10.0,South,10.4,-,N/A,Thunderstorm,Partly Cloudy,170,2013-06-30 23:06:00
7:54 PM,75.9,64.9,69,29.85,10.0,WSW,5.8,-,N/A,Thunderstorm,Overcast,250,2013-06-30 23:54:00
8:07 PM,75.2,64.4,69,29.86,10.0,SSW,5.8,-,N/A,,Mostly Cloudy,210,2013-07-01 00:07:00
8:54 PM,73.9,68.0,82,29.86,10.0,SSW,6.9,-,N/A,,Partly Cloudy,200,2013-07-01 00:54:00
9:54 PM,73.9,66.9,79,29.87,10.0,South,5.8,-,N/A,,Partly Cloudy,190,2013-07-01 01:54:00
10:54 PM,73.9,68.0,82,29.87,10.0,South,3.5,-,N/A,,Clear,190,2013-07-01 02:54:00
11:54 PM,72.0,70.0,93,29.89,6.0,SW,6.9,-,0.08,Rain-Thunderstorm,Light Rain,220,2013-07-01 03:54:00